Weather Service Report


523 
FPUS83 KFGF 030031
OPUFGF
PRAIRIE TO PINES WEATHER ROUNDUP
NATIONAL WEATHER SERVICE EASTERN NORTH DAKOTA/GRAND FORKS ND
700 PM CDT THU JUL 02 2015

 **SATELLITE DATA USED TO AUGMENT SKY COVER AT AUTOMATED STATIONS**
 *****  WEATHER ACROSS EASTERN NORTH DAKOTA  *****
  
CITY           SKY/WX    TMP DP  RH WIND       PRES   REMARKS
GRAND FORKS    CLOUDY    76  66  71 SW9       29.87F                  
6HR MIN TEMP:  75; 6HR MAX TEMP:  80; 6HR PCP: TRACE;                

GRAND FORKS AF PTSUNNY   76  66  71 W6        29.89F                  
GRAND CITY NWS   N/A     75 N/A N/A SW10        N/A                   
BUXTON         NOT AVBL                                               
DEVILS LAKE    SUNNY     75  61  60 NW8       29.92R                  
6HR MIN TEMP:  75; 6HR MAX TEMP:  79;                                

FARGO          PTSUNNY   76  54  46 S9        29.93F                  
6HR MIN TEMP:  75; 6HR MAX TEMP:  79;                                

WAHPETON ARPT  PTCLDY    72  54  53 S5        29.95F                  
$$

 *****  WEATHER ACROSS CENTRAL AND WESTERN NORTH DAKOTA  *****
  
CITY           SKY/WX    TMP DP  RH WIND       PRES   REMARKS
JAMESTOWN      PTSUNNY   76  63  64 S6        29.93S                  
6HR MIN TEMP:  73; 6HR MAX TEMP:  78;                                

BISMARCK       CLOUDY    77  62  59 N12       29.97S HAZE             
6HR MIN TEMP:  75; 6HR MAX TEMP:  81;                                

MINOT          CLOUDY    77  65  66 NW8       29.95S HAZE             
6HR MIN TEMP:  74; 6HR MAX TEMP:  79;                                

MINOT AFB      PTSUNNY   80  69  70 NW9       29.94S HAZE             
6HR MIN TEMP:  78; 6HR MAX TEMP:  83;                                

GARRISON         N/A     78  66  66 N7        29.96F                  
6HR MIN TEMP:  74; 6HR MAX TEMP:  80;                                

WILLISTON      MOSUNNY   82  57  42 N10       29.99F                  
6HR MIN TEMP:  69; 6HR MAX TEMP:  85; 6HR PCP:  0.06;                

DICKINSON      SUNNY     79  57  46 N9        30.00F                  
6HR MIN TEMP:  74; 6HR MAX TEMP:  80;                                

HETTINGER      MOSUNNY   78  58  49 N9        30.04S HAZE             
6HR MIN TEMP:  72; 6HR MAX TEMP:  78;                                

$$

 *****  OTHER OBSERVATIONS NORTHEAST NORTH DAKOTA  *****
  
CITY           SKY/WX    TMP DP  RH WIND       PRES   REMARKS
WALHALLA       FAIR      77  66  69 MISG      29.88F HAZE             
LANGDON        FAIR      75  66  73 NW6       29.93S HAZE             
CAVALIER       FAIR      75  64  69 NW6       29.87F HAZE             
GRAFTON        FAIR      77  66  69 NW7       29.88S                  
CANDO          FAIR      75  64  69 NW6       29.93S HAZE             
FORT TOTTEN      N/A     76  63  64 NW3       29.95S                  
ROLLA          FAIR      73  66  78 NW8       29.95S                  
RUGBY          NOT AVBL                                               
 ***** THE ABOVE OBSERVATIONS ARE NON NWS ARE NOT QUALITY
        CONTROLLED AND MAY MIS-REPORT RAIN FOR SNOW...
$$

 *****  OTHER OBSERVATIONS SOUTHEAST NORTH DAKOTA *****
  
CITY           SKY/WX    TMP DP  RH WIND       PRES   REMARKS
COOPERSTOWN    NOT AVBL                                               
VALLEY CITY    FAIR      75  66  73 SW9       29.94S                  
OAKES            N/A     72  68  88 S7        29.95F                  
GWINNER          N/A     73  57  56 SW8       29.95                   
BUFFALO        NOT AVBL                                               
WYNDMERE       NOT AVBL                                               
 ***** THE ABOVE OBSERVATIONS ARE NON NWS ARE NOT QUALITY
       CONTROLLED AND MAY MIS-REPORT RAIN FOR SNOW...
$$

  *****  WEATHER ACROSS NORTHERN MINNESOTA  *****     
  
CITY           SKY/WX    TMP DP  RH WIND       PRES   REMARKS
FLAG ISLAND    SUNNY     72  63  73 SW9       29.85F                  
WARROAD        PTSUNNY   73  63  68 SW8       29.88F                  
ROSEAU         MOSUNNY   73  64  73 SW7       29.88F                  
HALLOCK        PTSUNNY   75  66  73 S9        29.86S                  
THF RVR FALLS  CLOUDY    73  57  56 S12       29.91S                  
6HR MIN TEMP:  72; 6HR MAX TEMP:  75;                                

HALSTAD        NOT AVBL                                               
FOSSTON        MOSUNNY   70  54  56 S8        29.94F                  
BAUDETTE       PTSUNNY   72  55  55 SW6       29.89F                  
6HR MIN TEMP:  72; 6HR MAX TEMP:  76;                                

WASKISH        MOSUNNY   72  59  64 SW7       29.92F                  
CROOKSTON      CLOUDY    73  61  64 S8        29.91S                  
$$
  *****  WEATHER ACROSS CENTRAL AND WEST MINNESOTA  *****     
  
CITY           SKY/WX    TMP DP  RH WIND       PRES   REMARKS
BEMIDJI        SUNNY     72  56  57 SW7       29.95R                  
PARK RAPIDS    SUNNY     74  56  53 SW9       29.96S                  
6HR MIN TEMP:  74; 6HR MAX TEMP:  78;                                

WADENA         SUNNY     72  54  53 SW6       29.97S                  
DETROIT LAKES  SUNNY     72  52  49 S9        29.96F                  
MOORHEAD       PTSUNNY   73  54  49 S6        29.94S                  
FERGUS FALLS   SUNNY     72  54  53 S7        29.95F                  
ELBOW LAKE     FAIR      71  52  51 S5        29.97S                  
6HR MIN TEMP:  71; 6HR MAX TEMP:  74;                                

MORRIS MN      SUNNY     73  52  46 S5        29.96F                  
STAPLES        SUNNY     72  54  53 SW5       29.97S                  
WHEATON        SUNNY     70  54  56 S3        29.98S                  
$$
  *****  WEATHER ELSEWHERE ACROSS MINNESOTA  *****     
  
CITY           SKY/WX    TMP DP  RH WIND       PRES   REMARKS
DULUTH         MOSUNNY   74  56  53 SW12      29.95F                  
6HR MIN TEMP:  74; 6HR MAX TEMP:  77;                                

INTRNTL FALLS  CLOUDY    72  59  63 W9        29.90S                  
6HR MIN TEMP:  72; 6HR MAX TEMP:  77;                                

ELY            MOSUNNY   73  55  53 W7        29.93S                  
CLOQUET        MOSUNNY   73  54  49 SW6       29.96S                  
BRAINERD       SUNNY     74  54  49 SW9       29.96F                  
6HR MIN TEMP:  74; 6HR MAX TEMP:  78;                                

HIBBING        MOSUNNY   74  57  55 W3        29.94F                  
6HR MIN TEMP:  73; 6HR MAX TEMP:  77;                                

ALEXANDRIA     SUNNY     71  49  45 S10       29.99F                  
6HR MIN TEMP:  70; 6HR MAX TEMP:  73;                                

SAINT CLOUD    SUNNY     74  53  48 S6        29.97F                  
6HR MIN TEMP:  73; 6HR MAX TEMP:  77;                                

MINNEAPOLIS    PTSUNNY   75  53  46 SW7       29.98S                  
6HR MIN TEMP:  73; 6HR MAX TEMP:  77;                                

$$

  *****  WEATHER ACROSS SOUTH DAKOTA  *****
  
CITY           SKY/WX    TMP DP  RH WIND       PRES   REMARKS
SIOUX FALLS    CLOUDY    69  57  65 E3        29.98F                  
6HR MIN TEMP:  68; 6HR MAX TEMP:  72; 6HR PCP:  0.01;                

BROOKINGS      PTSUNNY   70  54  56 S7        30.00S                  
WATERTOWN      SUNNY     73  49  42 S7        29.98S                  
6HR MIN TEMP:  70; 6HR MAX TEMP:  74;                                

HURON          SUNNY     70  59  68 S10       29.96F                  
6HR MIN TEMP:  63; 6HR MAX TEMP:  73; 6HR PCP:  0.04;                

SISSETON         N/A     74  55  51 S8        29.95S                  
ABERDEEN       SUNNY     72  62  71 S8        29.96F                  
6HR MIN TEMP:  63; 6HR MAX TEMP:  73; 6HR PCP: TRACE;                

MITCHELL       PTSUNNY   69  59  70 E8        29.98F                  
PIERRE         SUNNY     78  64  61 NE6       29.95F                  
6HR MIN TEMP:  72; 6HR MAX TEMP:  79;                                

MOBRIDGE       MOSUNNY   79  66  64 N6        29.94F HAZE             
RAPID CITY     SUNNY     78  57  48 N20       30.06S                  
6HR MIN TEMP:  74; 6HR MAX TEMP:  81;                                

$$

  *****  SOME WEATHER IN NEARBY STATES *****
  
CITY           SKY/WX    TMP DP  RH WIND       PRES   REMARKS
GLASGOW MT     MOSUNNY   82  53  36 N10       30.02F                  
6HR MIN TEMP:  70; 6HR MAX TEMP:  84;                                

GREAT FALLS MT SUNNY     85  48  27 E12       30.07F                  
6HR MIN TEMP:  76; 6HR MAX TEMP:  85;                                

CHEYENNE WY    PTSUNNY   78  51  38 NE7       30.21S                  
6HR MIN TEMP:  74; 6HR MAX TEMP:  80;                                

SCOTTSBLUFF NE SUNNY     83  55  38 N12       30.08F                  
6HR MIN TEMP:  81; 6HR MAX TEMP:  86;                                

OMAHA NE       LGT RAIN  70  63  78 E5        29.94F                  
6HR MIN TEMP:  66; 6HR MAX TEMP:  71; 6HR PCP:  0.05;                

DES MOINES IA  CLOUDY    68  53  58 NE6       29.96F                  
6HR MIN TEMP:  68; 6HR MAX TEMP:  70; 6HR PCP: TRACE;                

DAVENPORT IA   CLOUDY    68  56  65 NE7       29.96F                  
6HR MIN TEMP:  68; 6HR MAX TEMP:  73;                                

CHICAGO IL     PTSUNNY   63  52  67 NE8       29.97F                  
6HR MIN TEMP:  63; 6HR MAX TEMP:  69;                                

EAU CLAIRE WI  CLOUDY    75  54  47 VRB3      29.98F                  
6HR MIN TEMP:  73; 6HR MAX TEMP:  76;                                

LA CROSSE WI   SUNNY     74  53  48 SE7       29.97F                  
6HR MIN TEMP:  72; 6HR MAX TEMP:  77;                                

$$

  *****  SOME NATIONAL WEATHER *****
  
CITY           SKY/WX    TMP DP  RH WIND       PRES   REMARKS
LA GUARDIA NY  CLOUDY    74  59  59 VRB5      29.86S                  

Return to Home page


Western Regional Climate Center, wrcc@dri.edu